User: anonymous   Login
Location: Vancouver
(49.2500°N, 123.1330°W)
Time: 17:47:00
(UTC-07:00)
Language:

SO-67 - Orbit

View from above orbital plane
View from above orbital plane
View from above satellite
View from above satellite

Ground track
Ground track

The orbit data is extracted from the following two-line orbital elements,

1 35870U 09049F   15109.47664793  .00018663  00000-0  46159-3 0  9999
2 35870 097.1401 127.1070 0003550 080.4535 023.6534 15.40494268311071
Epoch (UTC): 19 April 2015 11:26:22
Eccentricity: 0.0003550
inclination: 97.1401°
perigee height: 442 km
apogee height: 447 km
right ascension of ascending node: 127.1070°
argument of perigee: 80.4535°
revolutions per day: 15.40494268
mean anomaly at epoch: 23.6534°
orbit number at epoch: 31107

The dashed part of the orbit path shows where the satellite is in the earth's shadow,  

DLR